Time,TemperatureF,DewpointF,PressureIn,WindDirection,WindDirectionDegrees,WindSpeedMPH,WindSpeedGustMPH,Humidity,HourlyPrecipIn,Conditions,Clouds,dailyrainin,SoftwareType,DateUTC
2013-02-06 00:01:00,43.0,40.0,29.92,NNW,340,1.0,11.0,89,0.00,,,0.19,,2013-02-06 08:01:00,
2013-02-06 00:11:00,43.0,40.0,29.92,NNW,340,1.0,11.0,89,0.00,,,0.19,,2013-02-06 08:11:00,
2013-02-06 00:21:00,43.0,40.0,29.92,South,184,3.0,8.0,88,0.00,,,0.19,,2013-02-06 08:21:00,
2013-02-06 00:31:00,43.0,40.0,29.92,NW,315,4.0,11.0,88,0.00,,,0.19,,2013-02-06 08:31:00,
2013-02-06 00:41:00,43.0,40.0,29.92,NW,315,4.0,11.0,88,0.00,,,0.19,,2013-02-06 08:41:00,
2013-02-06 00:53:00,43.0,40.0,29.92,SE,126,1.0,9.0,88,0.00,,,0.19,,2013-02-06 08:53:00,
2013-02-06 01:01:00,43.0,40.0,29.93,NE,44,1.0,6.0,89,0.00,,,0.19,,2013-02-06 09:01:00,
2013-02-06 01:11:00,43.0,40.0,29.93,NE,44,1.0,6.0,89,0.00,,,0.19,,2013-02-06 09:11:00,
2013-02-06 01:21:00,43.0,40.0,29.94,SE,137,1.0,6.0,89,0.00,,,0.19,,2013-02-06 09:21:00,
2013-02-06 01:31:00,43.0,40.0,29.94,North,0,0.0,5.0,89,0.00,,,0.19,,2013-02-06 09:31:00,
2013-02-06 01:41:00,43.0,40.0,29.94,North,0,0.0,5.0,89,0.00,,,0.19,,2013-02-06 09:41:00,
2013-02-06 01:52:00,43.0,40.0,29.95,ENE,60,1.0,7.0,88,0.00,,,0.19,,2013-02-06 09:52:00,
2013-02-06 02:01:00,43.0,40.0,29.95,ESE,114,2.0,8.0,88,0.00,,,0.19,,2013-02-06 10:01:00,
2013-02-06 02:11:00,43.0,40.0,29.95,ESE,114,2.0,8.0,88,0.00,,,0.19,,2013-02-06 10:11:00,
2013-02-06 02:21:00,43.0,40.0,29.96,SE,131,1.0,7.0,88,0.00,,,0.19,,2013-02-06 10:21:00,
2013-02-06 02:31:00,43.0,40.0,29.96,SE,138,1.0,4.0,89,0.00,,,0.19,,2013-02-06 10:31:00,
2013-02-06 02:41:00,43.0,40.0,29.96,SE,138,1.0,4.0,89,0.00,,,0.19,,2013-02-06 10:41:00,
2013-02-06 02:52:00,43.0,40.0,29.96,SSE,160,1.0,5.0,89,0.00,,,0.19,,2013-02-06 10:52:00,
2013-02-06 03:01:00,43.0,40.0,29.96,SSE,153,2.0,10.0,89,0.00,,,0.19,,2013-02-06 11:01:00,
2013-02-06 03:11:00,43.0,40.0,29.96,SSE,153,2.0,10.0,89,0.00,,,0.19,,2013-02-06 11:11:00,
2013-02-06 03:21:00,43.0,40.0,29.96,SE,139,3.0,11.0,89,0.00,,,0.19,,2013-02-06 11:21:00,
2013-02-06 03:31:00,43.0,40.0,29.97,SSE,147,1.0,5.0,89,0.00,,,0.19,,2013-02-06 11:31:00,
2013-02-06 03:41:00,43.0,40.0,29.97,SSE,147,1.0,5.0,89,0.00,,,0.19,,2013-02-06 11:41:00,
2013-02-06 03:52:00,43.0,40.0,29.97,South,175,2.0,5.0,89,0.00,,,0.19,,2013-02-06 11:52:00,
2013-02-06 04:01:00,43.0,40.0,29.98,SSE,150,0.0,2.0,90,0.00,,,0.19,,2013-02-06 12:01:00,
2013-02-06 04:12:00,43.0,40.0,29.98,SSE,150,0.0,2.0,90,0.00,,,0.19,,2013-02-06 12:12:00,
2013-02-06 04:22:00,43.0,40.0,29.99,East,85,1.0,8.0,89,0.00,,,0.19,,2013-02-06 12:22:00,
2013-02-06 04:32:00,43.0,40.0,29.99,SE,144,2.0,5.0,89,0.00,,,0.19,,2013-02-06 12:32:00,
2013-02-06 04:41:00,43.0,40.0,29.99,SE,144,2.0,5.0,89,0.00,,,0.19,,2013-02-06 12:41:00,
2013-02-06 04:52:00,43.0,40.0,30.00,SE,139,2.0,8.0,89,0.00,,,0.19,,2013-02-06 12:52:00,
2013-02-06 05:01:00,43.0,40.0,30.00,SE,134,1.0,7.0,89,0.00,,,0.17,,2013-02-06 13:01:00,
2013-02-06 05:11:00,43.0,40.0,30.00,SE,134,1.0,7.0,89,0.00,,,0.17,,2013-02-06 13:11:00,
2013-02-06 05:21:00,42.0,39.0,30.00,SSE,147,1.0,4.0,90,0.00,,,0.17,,2013-02-06 13:21:00,
2013-02-06 05:31:00,42.0,40.0,30.01,SSE,154,1.0,6.0,91,0.00,,,0.17,,2013-02-06 13:31:00,
2013-02-06 05:41:00,42.0,40.0,30.01,SSE,154,1.0,6.0,91,0.00,,,0.17,,2013-02-06 13:41:00,
2013-02-06 05:52:00,42.0,40.0,30.00,SSE,159,4.0,8.0,91,0.00,,,0.17,,2013-02-06 13:52:00,
2013-02-06 06:01:00,42.0,40.0,30.00,SE,138,1.0,5.0,92,0.00,,,0.13,,2013-02-06 14:01:00,
2013-02-06 06:11:00,42.0,40.0,30.00,SE,138,1.0,5.0,92,0.00,,,0.13,,2013-02-06 14:11:00,
2013-02-06 06:21:00,42.0,40.0,30.01,SSE,149,3.0,6.0,91,0.00,,,0.13,,2013-02-06 14:21:00,
2013-02-06 06:31:00,42.0,40.0,30.01,South,181,3.0,6.0,91,0.00,,,0.13,,2013-02-06 14:31:00,
2013-02-06 06:41:00,42.0,40.0,30.01,South,181,3.0,6.0,91,0.00,,,0.13,,2013-02-06 14:41:00,
2013-02-06 06:52:00,42.0,39.0,30.01,ESE,116,3.0,8.0,90,0.00,,,0.13,,2013-02-06 14:52:00,
2013-02-06 07:01:00,42.0,39.0,30.02,SSE,148,0.0,4.0,90,0.00,,,0.12,,2013-02-06 15:01:00,
2013-02-06 07:11:00,42.0,39.0,30.02,SSE,148,0.0,4.0,90,0.00,,,0.12,,2013-02-06 15:11:00,
2013-02-06 07:21:00,42.0,39.0,30.01,SE,145,2.0,8.0,90,0.00,,,0.12,,2013-02-06 15:21:00,
2013-02-06 07:31:00,42.0,39.0,30.02,WNW,302,2.0,10.0,90,0.00,,,0.12,,2013-02-06 15:31:00,
2013-02-06 07:41:00,42.0,39.0,30.02,WNW,302,2.0,10.0,90,0.00,,,0.12,,2013-02-06 15:41:00,
2013-02-06 07:52:00,42.0,39.0,30.02,SE,141,5.0,7.0,90,0.00,,,0.12,,2013-02-06 15:52:00,
2013-02-06 08:01:00,42.0,39.0,30.03,ESE,123,2.0,8.0,90,0.00,,,0.12,,2013-02-06 16:01:00,
2013-02-06 08:11:00,42.0,39.0,30.03,ESE,123,2.0,8.0,90,0.00,,,0.12,,2013-02-06 16:11:00,
2013-02-06 08:21:00,42.0,39.0,30.03,SE,128,1.0,8.0,90,0.00,,,0.12,,2013-02-06 16:21:00,
2013-02-06 08:31:00,42.0,39.0,30.04,SE,130,2.0,6.0,90,0.00,,,0.12,,2013-02-06 16:31:00,
2013-02-06 08:41:00,42.0,39.0,30.04,SE,130,2.0,6.0,90,0.00,,,0.12,,2013-02-06 16:41:00,
2013-02-06 08:52:00,42.0,39.0,30.03,SSE,150,1.0,4.0,90,0.00,,,0.12,,2013-02-06 16:52:00,
2013-02-06 09:01:00,42.0,39.0,30.03,SE,134,2.0,5.0,90,0.00,,,0.12,,2013-02-06 17:01:00,
2013-02-06 09:11:00,42.0,39.0,30.03,SE,134,2.0,5.0,90,0.00,,,0.12,,2013-02-06 17:11:00,
2013-02-06 09:21:00,43.0,40.0,30.03,SSE,152,2.0,5.0,89,0.00,,,0.12,,2013-02-06 17:21:00,
2013-02-06 09:32:00,43.0,40.0,30.03,SE,131,1.0,6.0,88,0.00,,,0.12,,2013-02-06 17:32:00,
2013-02-06 09:41:00,43.0,40.0,30.03,SE,131,1.0,6.0,88,0.00,,,0.12,,2013-02-06 17:41:00,
2013-02-06 09:52:00,43.0,39.0,30.02,SE,140,1.0,5.0,87,0.00,,,0.12,,2013-02-06 17:52:00,
2013-02-06 10:01:00,44.0,40.0,30.02,North,355,1.0,6.0,86,0.00,,,0.12,,2013-02-06 18:01:00,
2013-02-06 10:11:00,44.0,40.0,30.02,East,87,1.0,8.0,86,0.00,,,0.12,,2013-02-06 18:11:00,
2013-02-06 10:22:00,44.0,40.0,30.02,East,87,1.0,8.0,86,0.00,,,0.12,,2013-02-06 18:22:00,
2013-02-06 10:32:00,45.0,40.0,30.02,ESE,120,3.0,6.0,84,0.00,,,0.12,,2013-02-06 18:32:00,
2013-02-06 10:41:00,45.0,40.0,30.02,ESE,120,3.0,6.0,84,0.00,,,0.12,,2013-02-06 18:41:00,
2013-02-06 10:52:00,45.0,40.0,30.01,SE,139,1.0,9.0,82,0.00,,,0.12,,2013-02-06 18:52:00,
2013-02-06 11:01:00,45.0,39.0,30.01,SE,134,2.0,4.0,80,0.00,,,0.12,,2013-02-06 19:01:00,
2013-02-06 11:11:00,45.0,39.0,30.01,SE,134,2.0,4.0,80,0.00,,,0.12,,2013-02-06 19:11:00,
2013-02-06 11:21:00,45.0,39.0,30.01,South,173,0.0,5.0,80,0.00,,,0.12,,2013-02-06 19:21:00,
2013-02-06 11:31:00,46.0,40.0,30.02,SE,132,2.0,5.0,79,0.00,,,0.12,,2013-02-06 19:31:00,
2013-02-06 11:41:00,46.0,40.0,30.02,SE,132,2.0,5.0,79,0.00,,,0.12,,2013-02-06 19:41:00,
2013-02-06 11:52:00,46.0,40.0,30.02,SE,132,1.0,4.0,79,0.00,,,0.12,,2013-02-06 19:52:00,
2013-02-06 12:01:00,46.0,40.0,30.01,SE,132,1.0,4.0,78,0.00,,,0.12,,2013-02-06 20:01:00,
2013-02-06 12:11:00,46.0,40.0,30.00,SE,132,0.0,3.0,78,0.00,,,0.12,,2013-02-06 20:11:00,
2013-02-06 12:21:00,46.0,40.0,30.00,SE,132,0.0,3.0,78,0.00,,,0.12,,2013-02-06 20:21:00,
2013-02-06 12:31:00,47.0,40.0,29.99,SE,134,1.0,5.0,77,0.00,,,0.12,,2013-02-06 20:31:00,
2013-02-06 12:41:00,47.0,40.0,29.99,SE,134,1.0,5.0,77,0.00,,,0.12,,2013-02-06 20:41:00,
2013-02-06 12:52:00,47.0,39.0,29.98,SE,134,0.0,4.0,74,0.00,,,0.12,,2013-02-06 20:52:00,
2013-02-06 13:01:00,48.0,39.0,29.98,SE,133,2.0,4.0,72,0.00,,,0.11,,2013-02-06 21:01:00,
2013-02-06 13:11:00,48.0,39.0,29.98,SE,133,2.0,4.0,72,0.00,,,0.11,,2013-02-06 21:11:00,
2013-02-06 13:21:00,49.0,40.0,29.97,SSE,165,2.0,5.0,70,0.00,,,0.11,,2013-02-06 21:21:00,
2013-02-06 13:31:00,49.0,40.0,29.96,SSW,201,1.0,6.0,70,0.00,,,0.11,,2013-02-06 21:31:00,
2013-02-06 13:41:00,49.0,40.0,29.96,SSW,201,1.0,6.0,70,0.00,,,0.11,,2013-02-06 21:41:00,
2013-02-06 13:52:00,49.0,40.0,29.96,East,97,2.0,4.0,70,0.00,,,0.11,,2013-02-06 21:52:00,
2013-02-06 14:01:00,49.0,40.0,29.96,SE,132,2.0,7.0,70,0.00,,,0.11,,2013-02-06 22:01:00,
2013-02-06 14:11:00,49.0,40.0,29.96,SE,132,2.0,7.0,70,0.00,,,0.11,,2013-02-06 22:11:00,
2013-02-06 14:21:00,49.0,39.0,29.95,ESE,108,1.0,8.0,68,0.00,,,0.11,,2013-02-06 22:21:00,
2013-02-06 14:31:00,49.0,39.0,29.94,SSE,149,4.0,8.0,68,0.00,,,0.11,,2013-02-06 22:31:00,
2013-02-06 14:41:00,49.0,39.0,29.94,SSE,149,4.0,8.0,68,0.00,,,0.11,,2013-02-06 22:41:00,
2013-02-06 14:52:00,49.0,40.0,29.95,East,93,3.0,12.0,71,0.00,,,0.11,,2013-02-06 22:52:00,
2013-02-06 15:01:00,49.0,40.0,29.95,SSE,148,4.0,9.0,71,0.00,,,0.11,,2013-02-06 23:01:00,
2013-02-06 15:11:00,49.0,40.0,29.95,SSE,148,4.0,9.0,71,0.00,,,0.11,,2013-02-06 23:11:00,
2013-02-06 15:21:00,48.0,39.0,29.95,SE,140,2.0,6.0,72,0.00,,,0.11,,2013-02-06 23:21:00,
2013-02-06 15:31:00,48.0,40.0,29.94,SSE,153,2.0,7.0,73,0.00,,,0.11,,2013-02-06 23:31:00,
2013-02-06 15:41:00,48.0,40.0,29.94,SSE,153,2.0,7.0,73,0.00,,,0.11,,2013-02-06 23:41:00,
2013-02-06 15:52:00,48.0,40.0,29.94,SE,140,2.0,7.0,74,0.00,,,0.11,,2013-02-06 23:52:00,
2013-02-06 16:01:00,47.0,41.0,29.93,SE,146,1.0,6.0,78,0.00,,,0.09,,2013-02-07 00:01:00,
2013-02-06 16:11:00,47.0,41.0,29.93,SE,146,1.0,6.0,78,0.00,,,0.09,,2013-02-07 00:11:00,
2013-02-06 16:21:00,46.0,41.0,29.94,SSE,154,1.0,3.0,81,0.00,,,0.09,,2013-02-07 00:21:00,
2013-02-06 16:31:00,46.0,40.0,29.92,SSE,157,1.0,4.0,79,0.00,,,0.09,,2013-02-07 00:31:00,
2013-02-06 16:41:00,46.0,40.0,29.92,SSE,157,1.0,4.0,79,0.00,,,0.09,,2013-02-07 00:41:00,
2013-02-06 16:52:00,46.0,41.0,29.93,SSE,157,0.0,3.0,81,0.01,,,0.10,,2013-02-07 00:52:00,
2013-02-06 17:01:00,45.0,41.0,29.92,SSE,157,2.0,3.0,86,0.01,,,0.10,,2013-02-07 01:01:00,
2013-02-06 17:11:00,45.0,41.0,29.92,SSE,157,2.0,3.0,86,0.01,,,0.10,,2013-02-07 01:11:00,
2013-02-06 17:21:00,44.0,40.0,29.93,NW,315,1.0,4.0,87,0.02,,,0.11,,2013-02-07 01:21:00,
2013-02-06 17:31:00,44.0,41.0,29.92,WNW,289,1.0,4.0,90,0.04,,,0.13,,2013-02-07 01:31:00,
2013-02-06 17:41:00,44.0,41.0,29.92,WNW,289,1.0,4.0,90,0.04,,,0.13,,2013-02-07 01:41:00,
2013-02-06 17:52:00,43.0,41.0,29.91,WNW,289,1.0,4.0,92,0.03,,,0.13,,2013-02-07 01:52:00,
2013-02-06 18:01:00,43.0,41.0,29.90,WNW,289,2.0,3.0,93,0.03,,,0.07,,2013-02-07 02:01:00,
2013-02-06 18:11:00,43.0,41.0,29.90,WNW,289,2.0,3.0,93,0.03,,,0.07,,2013-02-07 02:11:00,
2013-02-06 18:21:00,43.0,41.0,29.89,NW,314,2.0,3.0,93,0.02,,,0.07,,2013-02-07 02:21:00,
2013-02-06 18:31:00,43.0,41.0,29.90,NW,314,2.0,3.0,93,0.00,,,0.07,,2013-02-07 02:31:00,
2013-02-06 18:41:00,43.0,41.0,29.90,NW,314,2.0,3.0,93,0.00,,,0.07,,2013-02-07 02:41:00,
2013-02-06 18:51:00,43.0,41.0,29.90,NW,314,2.0,3.0,93,0.00,,,0.07,,2013-02-07 02:51:00,
2013-02-06 19:01:00,43.0,41.0,29.88,NE,55,1.0,3.0,92,0.01,,,0.06,,2013-02-07 03:01:00,
2013-02-06 19:11:00,43.0,41.0,29.88,NE,55,1.0,3.0,92,0.01,,,0.06,,2013-02-07 03:11:00,
2013-02-06 19:21:00,43.0,41.0,29.88,NE,55,1.0,2.0,93,0.02,,,0.07,,2013-02-07 03:21:00,
2013-02-06 19:31:00,43.0,41.0,29.87,NE,55,1.0,2.0,94,0.02,,,0.07,,2013-02-07 03:31:00,
2013-02-06 19:41:00,43.0,41.0,29.87,NE,55,1.0,2.0,94,0.02,,,0.07,,2013-02-07 03:41:00,
2013-02-06 19:52:00,42.0,40.0,29.85,NE,55,1.0,4.0,94,0.01,,,0.07,,2013-02-07 03:52:00,
2013-02-06 20:01:00,42.0,40.0,29.83,NE,55,2.0,4.0,94,0.01,,,0.06,,2013-02-07 04:01:00,
2013-02-06 20:11:00,42.0,40.0,29.83,NE,55,2.0,4.0,94,0.01,,,0.06,,2013-02-07 04:11:00,
2013-02-06 20:22:00,42.0,40.0,29.83,North,358,1.0,4.0,92,0.01,,,0.06,,2013-02-07 04:22:00,
2013-02-06 20:31:00,42.0,40.0,29.82,North,358,1.0,4.0,92,0.00,,,0.06,,2013-02-07 04:31:00,
2013-02-06 20:41:00,42.0,40.0,29.82,North,358,1.0,4.0,92,0.00,,,0.06,,2013-02-07 04:41:00,
2013-02-06 20:53:00,43.0,40.0,29.82,North,358,1.0,4.0,90,0.00,,,0.06,,2013-02-07 04:53:00,
2013-02-06 21:01:00,43.0,41.0,29.83,North,358,1.0,3.0,91,0.00,,,0.06,,2013-02-07 05:01:00,
2013-02-06 21:11:00,43.0,41.0,29.83,North,358,1.0,3.0,91,0.00,,,0.06,,2013-02-07 05:11:00,
2013-02-06 21:21:00,42.0,40.0,29.81,North,358,1.0,4.0,93,0.00,,,0.06,,2013-02-07 05:21:00,
2013-02-06 21:32:00,42.0,40.0,29.81,North,358,1.0,3.0,94,0.00,,,0.06,,2013-02-07 05:32:00,
2013-02-06 21:42:00,42.0,40.0,29.81,North,358,1.0,3.0,94,0.00,,,0.06,,2013-02-07 05:42:00,
2013-02-06 21:52:00,42.0,40.0,29.80,North,358,1.0,3.0,94,0.00,,,0.06,,2013-02-07 05:52:00,
2013-02-06 22:01:00,42.0,40.0,29.78,North,358,0.0,4.0,94,0.00,,,0.06,,2013-02-07 06:01:00,
2013-02-06 22:11:00,42.0,40.0,29.78,North,358,0.0,4.0,94,0.00,,,0.06,,2013-02-07 06:11:00,
2013-02-06 22:22:00,42.0,40.0,29.79,North,358,2.0,3.0,94,0.00,,,0.06,,2013-02-07 06:22:00,
2013-02-06 22:31:00,42.0,40.0,29.78,SSW,208,0.0,3.0,92,0.00,,,0.06,,2013-02-07 06:31:00,
2013-02-06 22:42:00,42.0,40.0,29.78,SSW,208,0.0,3.0,92,0.00,,,0.06,,2013-02-07 06:42:00,
2013-02-06 22:52:00,42.0,40.0,29.78,SSW,208,1.0,3.0,93,0.00,,,0.06,,2013-02-07 06:52:00,
2013-02-06 23:01:00,42.0,40.0,29.78,SSW,208,0.0,2.0,93,0.00,,,0.06,,2013-02-07 07:01:00,
2013-02-06 23:11:00,42.0,40.0,29.79,SE,143,2.0,7.0,93,0.00,,,0.06,,2013-02-07 07:11:00,
2013-02-06 23:21:00,42.0,40.0,29.79,SE,143,2.0,7.0,93,0.00,,,0.06,,2013-02-07 07:21:00,
2013-02-06 23:31:00,43.0,41.0,29.78,South,177,1.0,4.0,91,0.00,,,0.06,,2013-02-07 07:31:00,
2013-02-06 23:41:00,43.0,41.0,29.78,South,177,1.0,4.0,91,0.00,,,0.06,,2013-02-07 07:41:00,
2013-02-06 23:52:00,43.0,41.0,29.79,South,177,1.0,4.0,92,0.00,,,0.06,,2013-02-07 07:52:00,